Time,TemperatureF,DewpointF,PressureIn,WindDirection,WindDirectionDegrees,WindSpeedMPH,WindSpeedGustMPH,Humidity,HourlyPrecipIn,Conditions,Clouds,dailyrainin,SoftwareType,DateUTC
2013-03-28 00:00:00,35.8,19.0,29.87,North,-999,-999.0,-999.0,50,-99.99,,,-99.99,meteohub,2013-03-28 04:00:00,
2013-03-28 00:01:00,35.8,19.0,29.87,North,-999,-999.0,-999.0,50,-99.99,,,-99.99,meteohub,2013-03-28 04:01:00,
2013-03-28 00:02:00,35.8,19.0,29.87,North,-999,-999.0,-999.0,50,-99.99,,,-99.99,meteohub,2013-03-28 04:02:00,
2013-03-28 00:07:00,36.1,19.4,29.87,North,-999,-999.0,-999.0,50,-99.99,,,-99.99,meteohub,2013-03-28 04:07:00,
2013-03-28 00:12:00,36.5,19.8,29.87,North,-999,-999.0,-999.0,50,-99.99,,,-99.99,meteohub,2013-03-28 04:12:00,
2013-03-28 00:17:00,36.5,19.8,29.87,North,-999,-999.0,-999.0,50,-99.99,,,-99.99,meteohub,2013-03-28 04:17:00,
2013-03-28 00:22:00,36.3,19.6,29.87,North,-999,-999.0,-999.0,50,-99.99,,,-99.99,meteohub,2013-03-28 04:22:00,
2013-03-28 00:27:00,36.1,19.4,29.87,North,-999,-999.0,-999.0,50,-99.99,,,-99.99,meteohub,2013-03-28 04:27:00,
2013-03-28 00:32:00,36.0,19.2,29.87,North,-999,-999.0,-999.0,50,-99.99,,,-99.99,meteohub,2013-03-28 04:32:00,
2013-03-28 00:37:00,36.0,19.2,29.87,North,-999,-999.0,-999.0,50,-99.99,,,-99.99,meteohub,2013-03-28 04:37:00,
2013-03-28 00:42:00,35.8,19.0,29.87,North,-999,-999.0,-999.0,50,-99.99,,,-99.99,meteohub,2013-03-28 04:42:00,
2013-03-28 00:48:00,35.8,19.0,29.87,North,-999,-999.0,-999.0,50,-99.99,,,-99.99,meteohub,2013-03-28 04:48:00,
2013-03-28 00:53:00,35.8,19.0,29.87,North,-999,-999.0,-999.0,50,-99.99,,,-99.99,meteohub,2013-03-28 04:53:00,
2013-03-28 00:58:00,35.8,19.0,29.87,North,-999,-999.0,-999.0,50,-99.99,,,-99.99,meteohub,2013-03-28 04:58:00,
2013-03-28 01:03:00,35.8,19.0,29.87,North,-999,-999.0,-999.0,50,-99.99,,,-99.99,meteohub,2013-03-28 05:03:00,
2013-03-28 01:09:00,35.6,18.9,29.87,North,-999,-999.0,-999.0,50,-99.99,,,-99.99,meteohub,2013-03-28 05:09:00,
2013-03-28 01:14:00,35.6,18.9,29.87,North,-999,-999.0,-999.0,50,-99.99,,,-99.99,meteohub,2013-03-28 05:14:00,
2013-03-28 01:19:00,35.4,18.7,29.87,North,-999,-999.0,-999.0,50,-99.99,,,-99.99,meteohub,2013-03-28 05:19:00,
2013-03-28 01:25:00,35.4,19.2,29.87,North,-999,-999.0,-999.0,51,-99.99,,,-99.99,meteohub,2013-03-28 05:25:00,
2013-03-28 01:30:00,35.2,19.0,29.87,North,-999,-999.0,-999.0,51,-99.99,,,-99.99,meteohub,2013-03-28 05:30:00,
2013-03-28 01:35:00,35.1,18.9,29.87,North,-999,-999.0,-999.0,51,-99.99,,,-99.99,meteohub,2013-03-28 05:35:00,
2013-03-28 01:40:00,35.1,18.9,29.87,North,-999,-999.0,-999.0,51,-99.99,,,-99.99,meteohub,2013-03-28 05:40:00,
2013-03-28 01:45:00,34.9,18.7,29.87,North,-999,-999.0,-999.0,51,-99.99,,,-99.99,meteohub,2013-03-28 05:45:00,
2013-03-28 01:51:00,34.9,18.7,29.87,North,-999,-999.0,-999.0,51,-99.99,,,-99.99,meteohub,2013-03-28 05:51:00,
2013-03-28 01:56:00,34.5,18.3,29.87,North,-999,-999.0,-999.0,51,-99.99,,,-99.99,meteohub,2013-03-28 05:56:00,
2013-03-28 02:02:00,34.5,18.7,29.87,North,-999,-999.0,-999.0,52,-99.99,,,-99.99,meteohub,2013-03-28 06:02:00,
2013-03-28 02:07:00,34.3,18.5,29.87,North,-999,-999.0,-999.0,52,-99.99,,,-99.99,meteohub,2013-03-28 06:07:00,
2013-03-28 02:12:00,34.0,18.3,29.87,North,-999,-999.0,-999.0,52,-99.99,,,-99.99,meteohub,2013-03-28 06:12:00,
2013-03-28 02:17:00,34.0,18.3,29.87,North,-999,-999.0,-999.0,52,-99.99,,,-99.99,meteohub,2013-03-28 06:17:00,
2013-03-28 02:22:00,33.8,18.1,29.87,North,-999,-999.0,-999.0,52,-99.99,,,-99.99,meteohub,2013-03-28 06:22:00,
2013-03-28 02:27:00,33.8,18.1,29.87,North,-999,-999.0,-999.0,52,-99.99,,,-99.99,meteohub,2013-03-28 06:27:00,
2013-03-28 02:33:00,33.6,18.3,29.87,North,-999,-999.0,-999.0,53,-99.99,,,-99.99,meteohub,2013-03-28 06:33:00,
2013-03-28 02:38:00,33.6,18.3,29.84,North,-999,-999.0,-999.0,53,-99.99,,,-99.99,meteohub,2013-03-28 06:38:00,
2013-03-28 02:43:00,33.6,18.3,29.84,North,-999,-999.0,-999.0,53,-99.99,,,-99.99,meteohub,2013-03-28 06:43:00,
2013-03-28 02:48:00,33.4,18.7,29.84,North,-999,-999.0,-999.0,54,-99.99,,,-99.99,meteohub,2013-03-28 06:48:00,
2013-03-28 02:53:00,33.3,18.5,29.87,North,-999,-999.0,-999.0,54,-99.99,,,-99.99,meteohub,2013-03-28 06:53:00,
2013-03-28 02:58:00,33.3,18.5,29.87,North,-999,-999.0,-999.0,54,-99.99,,,-99.99,meteohub,2013-03-28 06:58:00,
2013-03-28 03:04:00,33.3,18.9,29.84,North,-999,-999.0,-999.0,55,-99.99,,,-99.99,meteohub,2013-03-28 07:04:00,
2013-03-28 03:09:00,33.1,18.7,29.84,North,-999,-999.0,-999.0,55,-99.99,,,-99.99,meteohub,2013-03-28 07:09:00,
2013-03-28 03:14:00,33.1,18.7,29.84,North,-999,-999.0,-999.0,55,-99.99,,,-99.99,meteohub,2013-03-28 07:14:00,
2013-03-28 03:19:00,33.1,19.2,29.84,North,-999,-999.0,-999.0,56,-99.99,,,-99.99,meteohub,2013-03-28 07:19:00,
2013-03-28 03:24:00,33.1,19.2,29.84,North,-999,-999.0,-999.0,56,-99.99,,,-99.99,meteohub,2013-03-28 07:24:00,
2013-03-28 03:30:00,32.9,19.0,29.84,North,-999,-999.0,-999.0,56,-99.99,,,-99.99,meteohub,2013-03-28 07:30:00,
2013-03-28 03:35:00,32.9,19.0,29.84,North,-999,-999.0,-999.0,56,-99.99,,,-99.99,meteohub,2013-03-28 07:35:00,
2013-03-28 03:40:00,32.9,19.0,29.84,North,-999,-999.0,-999.0,56,-99.99,,,-99.99,meteohub,2013-03-28 07:40:00,
2013-03-28 03:45:00,32.7,18.9,29.84,North,-999,-999.0,-999.0,56,-99.99,,,-99.99,meteohub,2013-03-28 07:45:00,
2013-03-28 03:50:00,32.7,19.2,29.84,North,-999,-999.0,-999.0,57,-99.99,,,-99.99,meteohub,2013-03-28 07:50:00,
2013-03-28 03:56:00,32.7,19.2,29.84,North,-999,-999.0,-999.0,57,-99.99,,,-99.99,meteohub,2013-03-28 07:56:00,
2013-03-28 04:01:00,32.7,18.9,29.84,North,-999,-999.0,-999.0,56,-99.99,,,-99.99,meteohub,2013-03-28 08:01:00,
2013-03-28 04:06:00,32.5,18.7,29.84,North,-999,-999.0,-999.0,56,-99.99,,,-99.99,meteohub,2013-03-28 08:06:00,
2013-03-28 04:11:00,32.5,18.7,29.84,North,-999,-999.0,-999.0,56,-99.99,,,-99.99,meteohub,2013-03-28 08:11:00,
2013-03-28 04:17:00,32.4,18.9,29.84,North,-999,-999.0,-999.0,57,-99.99,,,-99.99,meteohub,2013-03-28 08:17:00,
2013-03-28 04:22:00,32.4,18.9,29.84,North,-999,-999.0,-999.0,57,-99.99,,,-99.99,meteohub,2013-03-28 08:22:00,
2013-03-28 04:27:00,32.4,18.9,29.84,North,-999,-999.0,-999.0,57,-99.99,,,-99.99,meteohub,2013-03-28 08:27:00,
2013-03-28 04:32:00,32.4,18.9,29.84,North,-999,-999.0,-999.0,57,-99.99,,,-99.99,meteohub,2013-03-28 08:32:00,
2013-03-28 04:37:00,32.2,18.7,29.84,North,-999,-999.0,-999.0,57,-99.99,,,-99.99,meteohub,2013-03-28 08:37:00,
2013-03-28 04:42:00,32.2,18.7,29.84,North,-999,-999.0,-999.0,57,-99.99,,,-99.99,meteohub,2013-03-28 08:42:00,
2013-03-28 04:47:00,32.2,18.7,29.84,North,-999,-999.0,-999.0,57,-99.99,,,-99.99,meteohub,2013-03-28 08:47:00,
2013-03-28 04:52:00,32.0,18.5,29.84,North,-999,-999.0,-999.0,57,-99.99,,,-99.99,meteohub,2013-03-28 08:52:00,
2013-03-28 04:57:00,32.2,19.0,29.84,North,-999,-999.0,-999.0,58,-99.99,,,-99.99,meteohub,2013-03-28 08:57:00,
2013-03-28 05:02:00,32.7,19.6,29.84,North,-999,-999.0,-999.0,58,-99.99,,,-99.99,meteohub,2013-03-28 09:02:00,
2013-03-28 05:07:00,33.8,20.7,29.84,North,-999,-999.0,-999.0,58,-99.99,,,-99.99,meteohub,2013-03-28 09:07:00,
2013-03-28 05:12:00,34.2,20.5,29.84,North,-999,-999.0,-999.0,57,-99.99,,,-99.99,meteohub,2013-03-28 09:12:00,
2013-03-28 05:17:00,34.3,20.3,29.84,North,-999,-999.0,-999.0,56,-99.99,,,-99.99,meteohub,2013-03-28 09:17:00,
2013-03-28 05:22:00,34.5,20.5,29.84,North,-999,-999.0,-999.0,56,-99.99,,,-99.99,meteohub,2013-03-28 09:22:00,
2013-03-28 05:27:00,34.5,20.5,29.84,North,-999,-999.0,-999.0,56,-99.99,,,-99.99,meteohub,2013-03-28 09:27:00,
2013-03-28 05:32:00,34.2,20.1,29.84,North,-999,-999.0,-999.0,56,-99.99,,,-99.99,meteohub,2013-03-28 09:32:00,
2013-03-28 05:37:00,33.8,19.8,29.84,North,-999,-999.0,-999.0,56,-99.99,,,-99.99,meteohub,2013-03-28 09:37:00,
2013-03-28 05:42:00,33.8,19.8,29.84,North,-999,-999.0,-999.0,56,-99.99,,,-99.99,meteohub,2013-03-28 09:42:00,
2013-03-28 05:48:00,34.2,20.1,29.84,North,-999,-999.0,-999.0,56,-99.99,,,-99.99,meteohub,2013-03-28 09:48:00,
2013-03-28 05:53:00,34.3,19.9,29.84,North,-999,-999.0,-999.0,55,-99.99,,,-99.99,meteohub,2013-03-28 09:53:00,
2013-03-28 05:58:00,34.5,20.1,29.84,North,-999,-999.0,-999.0,55,-99.99,,,-99.99,meteohub,2013-03-28 09:58:00,
2013-03-28 06:03:00,34.2,20.1,29.84,North,-999,-999.0,-999.0,56,-99.99,,,-99.99,meteohub,2013-03-28 10:03:00,
2013-03-28 06:08:00,33.8,19.8,29.84,North,-999,-999.0,-999.0,56,-99.99,,,-99.99,meteohub,2013-03-28 10:08:00,
2013-03-28 06:14:00,33.8,19.8,29.84,North,-999,-999.0,-999.0,56,-99.99,,,-99.99,meteohub,2013-03-28 10:14:00,
2013-03-28 06:19:00,33.8,19.8,29.84,North,-999,-999.0,-999.0,56,-99.99,,,-99.99,meteohub,2013-03-28 10:19:00,
2013-03-28 06:24:00,33.8,19.8,29.84,North,-999,-999.0,-999.0,56,-99.99,,,-99.99,meteohub,2013-03-28 10:24:00,
2013-03-28 06:29:00,34.0,19.9,29.84,North,-999,-999.0,-999.0,56,-99.99,,,-99.99,meteohub,2013-03-28 10:29:00,
2013-03-28 06:34:00,34.0,19.9,29.84,North,-999,-999.0,-999.0,56,-99.99,,,-99.99,meteohub,2013-03-28 10:34:00,
2013-03-28 06:39:00,33.8,19.8,29.84,North,-999,-999.0,-999.0,56,-99.99,,,-99.99,meteohub,2013-03-28 10:39:00,
2013-03-28 06:44:00,33.6,19.6,29.84,North,-999,-999.0,-999.0,56,-99.99,,,-99.99,meteohub,2013-03-28 10:44:00,
2013-03-28 06:50:00,33.4,19.9,29.87,North,-999,-999.0,-999.0,57,-99.99,,,-99.99,meteohub,2013-03-28 10:50:00,
2013-03-28 06:55:00,33.6,20.1,29.87,North,-999,-999.0,-999.0,57,-99.99,,,-99.99,meteohub,2013-03-28 10:55:00,
2013-03-28 07:00:00,33.6,20.1,29.87,North,-999,-999.0,-999.0,57,-99.99,,,-99.99,meteohub,2013-03-28 11:00:00,
2013-03-28 07:05:00,34.0,20.5,29.87,North,-999,-999.0,-999.0,57,-99.99,,,-99.99,meteohub,2013-03-28 11:05:00,
2013-03-28 07:11:00,34.2,20.5,29.87,North,-999,-999.0,-999.0,57,-99.99,,,-99.99,meteohub,2013-03-28 11:11:00,
2013-03-28 07:16:00,34.2,20.5,29.87,North,-999,-999.0,-999.0,57,-99.99,,,-99.99,meteohub,2013-03-28 11:16:00,
2013-03-28 07:21:00,33.8,20.3,29.90,North,-999,-999.0,-999.0,57,-99.99,,,-99.99,meteohub,2013-03-28 11:21:00,
2013-03-28 07:26:00,33.3,20.1,29.90,North,-999,-999.0,-999.0,58,-99.99,,,-99.99,meteohub,2013-03-28 11:26:00,
2013-03-28 07:31:00,33.1,20.3,29.90,North,-999,-999.0,-999.0,59,-99.99,,,-99.99,meteohub,2013-03-28 11:31:00,
2013-03-28 07:37:00,32.9,20.7,29.90,North,-999,-999.0,-999.0,60,-99.99,,,-99.99,meteohub,2013-03-28 11:37:00,
2013-03-28 07:42:00,32.7,20.8,29.90,North,-999,-999.0,-999.0,61,-99.99,,,-99.99,meteohub,2013-03-28 11:42:00,
2013-03-28 07:48:00,32.7,20.8,29.90,North,-999,-999.0,-999.0,61,-99.99,,,-99.99,meteohub,2013-03-28 11:48:00,
2013-03-28 07:53:00,33.1,21.6,29.90,North,-999,-999.0,-999.0,62,-99.99,,,-99.99,meteohub,2013-03-28 11:53:00,
2013-03-28 07:58:00,34.0,22.3,29.90,North,-999,-999.0,-999.0,62,-99.99,,,-99.99,meteohub,2013-03-28 11:58:00,
2013-03-28 08:03:00,33.8,22.3,29.90,North,-999,-999.0,-999.0,62,-99.99,,,-99.99,meteohub,2013-03-28 12:03:00,
2013-03-28 08:08:00,34.7,23.0,29.90,North,-999,-999.0,-999.0,62,-99.99,,,-99.99,meteohub,2013-03-28 12:08:00,
2013-03-28 08:14:00,35.6,23.9,29.90,North,-999,-999.0,-999.0,62,-99.99,,,-99.99,meteohub,2013-03-28 12:14:00,
2013-03-28 08:19:00,36.7,25.0,29.90,North,-999,-999.0,-999.0,62,-99.99,,,-99.99,meteohub,2013-03-28 12:19:00,
2013-03-28 08:24:00,37.6,25.0,29.90,North,-999,-999.0,-999.0,60,-99.99,,,-99.99,meteohub,2013-03-28 12:24:00,
2013-03-28 08:29:00,38.7,25.2,29.90,North,-999,-999.0,-999.0,58,-99.99,,,-99.99,meteohub,2013-03-28 12:29:00,
2013-03-28 08:34:00,39.0,24.6,29.90,North,-999,-999.0,-999.0,56,-99.99,,,-99.99,meteohub,2013-03-28 12:34:00,
2013-03-28 08:39:00,39.4,24.1,29.90,North,-999,-999.0,-999.0,54,-99.99,,,-99.99,meteohub,2013-03-28 12:39:00,
2013-03-28 08:44:00,39.7,24.4,29.90,North,-999,-999.0,-999.0,54,-99.99,,,-99.99,meteohub,2013-03-28 12:44:00,
2013-03-28 08:50:00,39.9,24.3,29.90,North,-999,-999.0,-999.0,53,-99.99,,,-99.99,meteohub,2013-03-28 12:50:00,
2013-03-28 08:55:00,40.3,24.6,29.90,North,-999,-999.0,-999.0,53,-99.99,,,-99.99,meteohub,2013-03-28 12:55:00,
2013-03-28 09:00:00,40.6,24.4,29.90,North,-999,-999.0,-999.0,52,-99.99,,,-99.99,meteohub,2013-03-28 13:00:00,
2013-03-28 09:05:00,41.2,25.0,29.90,North,-999,-999.0,-999.0,52,-99.99,,,-99.99,meteohub,2013-03-28 13:05:00,
2013-03-28 09:10:00,41.5,24.8,29.90,North,-999,-999.0,-999.0,51,-99.99,,,-99.99,meteohub,2013-03-28 13:10:00,
2013-03-28 09:15:00,42.8,25.5,29.90,North,-999,-999.0,-999.0,50,-99.99,,,-99.99,meteohub,2013-03-28 13:15:00,
2013-03-28 09:21:00,43.3,25.5,29.90,North,-999,-999.0,-999.0,49,-99.99,,,-99.99,meteohub,2013-03-28 13:21:00,
2013-03-28 09:26:00,44.1,25.7,29.90,North,-999,-999.0,-999.0,48,-99.99,,,-99.99,meteohub,2013-03-28 13:26:00,
2013-03-28 09:31:00,44.2,25.9,29.90,North,-999,-999.0,-999.0,48,-99.99,,,-99.99,meteohub,2013-03-28 13:31:00,
2013-03-28 09:36:00,44.8,24.8,29.90,North,-999,-999.0,-999.0,45,-99.99,,,-99.99,meteohub,2013-03-28 13:36:00,
2013-03-28 09:41:00,45.0,23.9,29.90,North,-999,-999.0,-999.0,43,-99.99,,,-99.99,meteohub,2013-03-28 13:41:00,
2013-03-28 09:47:00,45.1,23.5,29.90,North,-999,-999.0,-999.0,42,-99.99,,,-99.99,meteohub,2013-03-28 13:47:00,
2013-03-28 09:52:00,46.2,23.9,29.90,North,-999,-999.0,-999.0,41,-99.99,,,-99.99,meteohub,2013-03-28 13:52:00,
2013-03-28 09:57:00,46.2,23.9,29.90,North,-999,-999.0,-999.0,41,-99.99,,,-99.99,meteohub,2013-03-28 13:57:00,
2013-03-28 10:02:00,46.8,23.7,29.90,North,-999,-999.0,-999.0,40,-99.99,,,-99.99,meteohub,2013-03-28 14:02:00,
2013-03-28 10:07:00,47.1,23.5,29.90,North,-999,-999.0,-999.0,39,-99.99,,,-99.99,meteohub,2013-03-28 14:07:00,
2013-03-28 10:12:00,47.5,23.7,29.90,North,-999,-999.0,-999.0,39,-99.99,,,-99.99,meteohub,2013-03-28 14:12:00,
2013-03-28 10:18:00,48.2,24.4,29.90,North,-999,-999.0,-999.0,39,-99.99,,,-99.99,meteohub,2013-03-28 14:18:00,
2013-03-28 10:23:00,48.2,23.9,29.90,North,-999,-999.0,-999.0,38,-99.99,,,-99.99,meteohub,2013-03-28 14:23:00,
2013-03-28 10:28:00,48.7,24.3,29.90,North,-999,-999.0,-999.0,38,-99.99,,,-99.99,meteohub,2013-03-28 14:28:00,
2013-03-28 10:33:00,48.6,23.5,29.90,North,-999,-999.0,-999.0,37,-99.99,,,-99.99,meteohub,2013-03-28 14:33:00,
2013-03-28 10:38:00,49.3,24.1,29.90,North,-999,-999.0,-999.0,37,-99.99,,,-99.99,meteohub,2013-03-28 14:38:00,
2013-03-28 10:43:00,49.5,24.3,29.90,North,-999,-999.0,-999.0,37,-99.99,,,-99.99,meteohub,2013-03-28 14:43:00,
2013-03-28 10:48:00,50.0,24.1,29.90,North,-999,-999.0,-999.0,36,-99.99,,,-99.99,meteohub,2013-03-28 14:48:00,
2013-03-28 10:54:00,49.6,24.4,29.87,North,-999,-999.0,-999.0,37,-99.99,,,-99.99,meteohub,2013-03-28 14:54:00,
2013-03-28 10:59:00,50.0,24.1,29.87,North,-999,-999.0,-999.0,36,-99.99,,,-99.99,meteohub,2013-03-28 14:59:00,
2013-03-28 11:04:00,50.0,24.1,29.87,North,-999,-999.0,-999.0,36,-99.99,,,-99.99,meteohub,2013-03-28 15:04:00,
2013-03-28 11:09:00,51.1,25.2,29.87,North,-999,-999.0,-999.0,36,-99.99,,,-99.99,meteohub,2013-03-28 15:09:00,
2013-03-28 11:14:00,52.0,25.9,29.87,North,-999,-999.0,-999.0,36,-99.99,,,-99.99,meteohub,2013-03-28 15:14:00,
2013-03-28 11:20:00,52.3,26.2,29.87,North,-999,-999.0,-999.0,36,-99.99,,,-99.99,meteohub,2013-03-28 15:20:00,
2013-03-28 11:25:00,52.5,26.4,29.87,North,-999,-999.0,-999.0,36,-99.99,,,-99.99,meteohub,2013-03-28 15:25:00,
2013-03-28 11:30:00,52.3,24.8,29.87,North,-999,-999.0,-999.0,34,-99.99,,,-99.99,meteohub,2013-03-28 15:30:00,
2013-03-28 11:35:00,52.2,24.6,29.87,North,-999,-999.0,-999.0,34,-99.99,,,-99.99,meteohub,2013-03-28 15:35:00,
2013-03-28 11:40:00,52.9,25.3,29.87,North,-999,-999.0,-999.0,34,-99.99,,,-99.99,meteohub,2013-03-28 15:40:00,
2013-03-28 11:45:00,53.2,26.4,29.87,North,-999,-999.0,-999.0,35,-99.99,,,-99.99,meteohub,2013-03-28 15:45:00,
2013-03-28 11:51:00,53.8,25.3,29.87,North,-999,-999.0,-999.0,33,-99.99,,,-99.99,meteohub,2013-03-28 15:51:00,
2013-03-28 11:56:00,53.8,25.3,29.87,North,-999,-999.0,-999.0,33,-99.99,,,-99.99,meteohub,2013-03-28 15:56:00,
2013-03-28 12:02:00,54.5,26.1,29.87,North,-999,-999.0,-999.0,33,-99.99,,,-99.99,meteohub,2013-03-28 16:02:00,
2013-03-28 12:07:00,54.3,25.9,29.87,North,-999,-999.0,-999.0,33,-99.99,,,-99.99,meteohub,2013-03-28 16:07:00,
2013-03-28 12:12:00,55.0,26.6,29.87,North,-999,-999.0,-999.0,33,-99.99,,,-99.99,meteohub,2013-03-28 16:12:00,
2013-03-28 12:17:00,55.4,26.1,29.87,North,-999,-999.0,-999.0,32,-99.99,,,-99.99,meteohub,2013-03-28 16:17:00,
2013-03-28 12:22:00,55.6,25.5,29.87,North,-999,-999.0,-999.0,31,-99.99,,,-99.99,meteohub,2013-03-28 16:22:00,
2013-03-28 12:27:00,55.9,26.6,29.87,North,-999,-999.0,-999.0,32,-99.99,,,-99.99,meteohub,2013-03-28 16:27:00,
2013-03-28 12:32:00,55.9,25.9,29.87,North,-999,-999.0,-999.0,31,-99.99,,,-99.99,meteohub,2013-03-28 16:32:00,
2013-03-28 12:37:00,55.4,24.6,29.87,North,-999,-999.0,-999.0,30,-99.99,,,-99.99,meteohub,2013-03-28 16:37:00,
2013-03-28 12:42:00,55.9,25.0,29.87,North,-999,-999.0,-999.0,30,-99.99,,,-99.99,meteohub,2013-03-28 16:42:00,
2013-03-28 12:48:00,55.9,24.3,29.87,North,-999,-999.0,-999.0,29,-99.99,,,-99.99,meteohub,2013-03-28 16:48:00,
2013-03-28 12:53:00,56.3,25.3,29.87,North,-999,-999.0,-999.0,30,-99.99,,,-99.99,meteohub,2013-03-28 16:53:00,
2013-03-28 12:58:00,56.3,24.4,29.87,North,-999,-999.0,-999.0,29,-99.99,,,-99.99,meteohub,2013-03-28 16:58:00,
2013-03-28 13:03:00,55.9,24.3,29.87,North,-999,-999.0,-999.0,29,-99.99,,,-99.99,meteohub,2013-03-28 17:03:00,
2013-03-28 13:09:00,55.9,24.3,29.84,North,-999,-999.0,-999.0,29,-99.99,,,-99.99,meteohub,2013-03-28 17:09:00,
2013-03-28 13:14:00,56.1,24.4,29.84,North,-999,-999.0,-999.0,29,-99.99,,,-99.99,meteohub,2013-03-28 17:14:00,
2013-03-28 13:19:00,56.3,25.3,29.84,North,-999,-999.0,-999.0,30,-99.99,,,-99.99,meteohub,2013-03-28 17:19:00,
2013-03-28 13:24:00,56.7,25.7,29.84,North,-999,-999.0,-999.0,30,-99.99,,,-99.99,meteohub,2013-03-28 17:24:00,
2013-03-28 13:29:00,56.8,25.0,29.84,North,-999,-999.0,-999.0,29,-99.99,,,-99.99,meteohub,2013-03-28 17:29:00,
2013-03-28 13:34:00,56.5,24.6,29.84,North,-999,-999.0,-999.0,29,-99.99,,,-99.99,meteohub,2013-03-28 17:34:00,
2013-03-28 13:40:00,56.5,24.6,29.84,North,-999,-999.0,-999.0,29,-99.99,,,-99.99,meteohub,2013-03-28 17:40:00,
2013-03-28 13:45:00,57.6,26.4,29.84,North,-999,-999.0,-999.0,30,-99.99,,,-99.99,meteohub,2013-03-28 17:45:00,
2013-03-28 13:50:00,56.5,24.6,29.84,North,-999,-999.0,-999.0,29,-99.99,,,-99.99,meteohub,2013-03-28 17:50:00,
2013-03-28 13:55:00,57.2,26.1,29.84,North,-999,-999.0,-999.0,30,-99.99,,,-99.99,meteohub,2013-03-28 17:55:00,
2013-03-28 14:00:00,57.2,25.3,29.84,North,-999,-999.0,-999.0,29,-99.99,,,-99.99,meteohub,2013-03-28 18:00:00,
2013-03-28 14:06:00,57.2,25.3,29.84,North,-999,-999.0,-999.0,29,-99.99,,,-99.99,meteohub,2013-03-28 18:06:00,
2013-03-28 14:12:00,57.2,25.3,29.84,North,-999,-999.0,-999.0,29,-99.99,,,-99.99,meteohub,2013-03-28 18:12:00,
2013-03-28 14:17:00,57.6,25.5,29.84,North,-999,-999.0,-999.0,29,-99.99,,,-99.99,meteohub,2013-03-28 18:17:00,
2013-03-28 14:22:00,57.7,25.7,29.84,North,-999,-999.0,-999.0,29,-99.99,,,-99.99,meteohub,2013-03-28 18:22:00,
2013-03-28 14:27:00,57.6,25.5,29.84,North,-999,-999.0,-999.0,29,-99.99,,,-99.99,meteohub,2013-03-28 18:27:00,
2013-03-28 14:32:00,57.4,24.6,29.84,North,-999,-999.0,-999.0,28,-99.99,,,-99.99,meteohub,2013-03-28 18:32:00,
2013-03-28 14:37:00,57.7,25.0,29.81,North,-999,-999.0,-999.0,28,-99.99,,,-99.99,meteohub,2013-03-28 18:37:00,
2013-03-28 14:42:00,57.4,24.6,29.81,North,-999,-999.0,-999.0,28,-99.99,,,-99.99,meteohub,2013-03-28 18:42:00,
2013-03-28 14:47:00,57.4,24.6,29.81,North,-999,-999.0,-999.0,28,-99.99,,,-99.99,meteohub,2013-03-28 18:47:00,
2013-03-28 14:52:00,57.6,24.8,29.81,North,-999,-999.0,-999.0,28,-99.99,,,-99.99,meteohub,2013-03-28 18:52:00,
2013-03-28 14:57:00,57.7,25.0,29.81,North,-999,-999.0,-999.0,28,-99.99,,,-99.99,meteohub,2013-03-28 18:57:00,
2013-03-28 15:02:00,58.3,25.3,29.81,North,-999,-999.0,-999.0,28,-99.99,,,-99.99,meteohub,2013-03-28 19:02:00,
2013-03-28 15:07:00,57.9,25.0,29.81,North,-999,-999.0,-999.0,28,-99.99,,,-99.99,meteohub,2013-03-28 19:07:00,
2013-03-28 15:13:00,58.1,25.2,29.81,North,-999,-999.0,-999.0,28,-99.99,,,-99.99,meteohub,2013-03-28 19:13:00,
2013-03-28 15:18:00,57.4,23.7,29.81,North,-999,-999.0,-999.0,27,-99.99,,,-99.99,meteohub,2013-03-28 19:18:00,
2013-03-28 15:23:00,57.2,23.5,29.81,North,-999,-999.0,-999.0,27,-99.99,,,-99.99,meteohub,2013-03-28 19:23:00,
2013-03-28 15:28:00,57.6,24.8,29.81,North,-999,-999.0,-999.0,28,-99.99,,,-99.99,meteohub,2013-03-28 19:28:00,
2013-03-28 15:33:00,57.9,25.0,29.81,North,-999,-999.0,-999.0,28,-99.99,,,-99.99,meteohub,2013-03-28 19:33:00,
2013-03-28 15:38:00,57.7,25.0,29.81,North,-999,-999.0,-999.0,28,-99.99,,,-99.99,meteohub,2013-03-28 19:38:00,
2013-03-28 15:44:00,57.6,23.9,29.81,North,-999,-999.0,-999.0,27,-99.99,,,-99.99,meteohub,2013-03-28 19:44:00,
2013-03-28 15:49:00,57.0,23.4,29.81,North,-999,-999.0,-999.0,27,-99.99,,,-99.99,meteohub,2013-03-28 19:49:00,
2013-03-28 15:54:00,57.2,23.5,29.81,North,-999,-999.0,-999.0,27,-99.99,,,-99.99,meteohub,2013-03-28 19:54:00,
2013-03-28 15:59:00,57.4,23.7,29.81,North,-999,-999.0,-999.0,27,-99.99,,,-99.99,meteohub,2013-03-28 19:59:00,
2013-03-28 16:05:00,57.0,23.4,29.81,North,-999,-999.0,-999.0,27,-99.99,,,-99.99,meteohub,2013-03-28 20:05:00,
2013-03-28 16:10:00,57.0,23.4,29.81,North,-999,-999.0,-999.0,27,-99.99,,,-99.99,meteohub,2013-03-28 20:10:00,
2013-03-28 16:15:00,57.2,23.5,29.81,North,-999,-999.0,-999.0,27,-99.99,,,-99.99,meteohub,2013-03-28 20:15:00,
2013-03-28 16:20:00,57.4,23.7,29.81,North,-999,-999.0,-999.0,27,-99.99,,,-99.99,meteohub,2013-03-28 20:20:00,
2013-03-28 16:25:00,57.4,23.7,29.81,North,-999,-999.0,-999.0,27,-99.99,,,-99.99,meteohub,2013-03-28 20:25:00,
2013-03-28 16:30:00,56.8,23.4,29.81,North,-999,-999.0,-999.0,27,-99.99,,,-99.99,meteohub,2013-03-28 20:30:00,
2013-03-28 16:35:00,57.2,23.5,29.81,North,-999,-999.0,-999.0,27,-99.99,,,-99.99,meteohub,2013-03-28 20:35:00,
2013-03-28 16:41:00,57.2,23.5,29.81,North,-999,-999.0,-999.0,27,-99.99,,,-99.99,meteohub,2013-03-28 20:41:00,
2013-03-28 16:46:00,57.2,23.5,29.81,North,-999,-999.0,-999.0,27,-99.99,,,-99.99,meteohub,2013-03-28 20:46:00,
2013-03-28 16:51:00,57.2,23.5,29.81,North,-999,-999.0,-999.0,27,-99.99,,,-99.99,meteohub,2013-03-28 20:51:00,
2013-03-28 16:57:00,57.0,23.4,29.81,North,-999,-999.0,-999.0,27,-99.99,,,-99.99,meteohub,2013-03-28 20:57:00,
2013-03-28 17:02:00,56.8,23.4,29.81,North,-999,-999.0,-999.0,27,-99.99,,,-99.99,meteohub,2013-03-28 21:02:00,
2013-03-28 17:07:00,56.7,23.2,29.81,North,-999,-999.0,-999.0,27,-99.99,,,-99.99,meteohub,2013-03-28 21:07:00,
2013-03-28 17:12:00,56.7,23.2,29.81,North,-999,-999.0,-999.0,27,-99.99,,,-99.99,meteohub,2013-03-28 21:12:00,
2013-03-28 17:17:00,56.7,23.2,29.81,North,-999,-999.0,-999.0,27,-99.99,,,-99.99,meteohub,2013-03-28 21:17:00,
2013-03-28 17:22:00,56.1,22.6,29.81,North,-999,-999.0,-999.0,27,-99.99,,,-99.99,meteohub,2013-03-28 21:22:00,
2013-03-28 17:27:00,55.9,22.5,29.81,North,-999,-999.0,-999.0,27,-99.99,,,-99.99,meteohub,2013-03-28 21:27:00,
2013-03-28 17:33:00,55.2,22.8,29.81,North,-999,-999.0,-999.0,28,-99.99,,,-99.99,meteohub,2013-03-28 21:33:00,
2013-03-28 17:38:00,55.2,22.8,29.81,North,-999,-999.0,-999.0,28,-99.99,,,-99.99,meteohub,2013-03-28 21:38:00,
2013-03-28 17:43:00,54.9,22.5,29.81,North,-999,-999.0,-999.0,28,-99.99,,,-99.99,meteohub,2013-03-28 21:43:00,
2013-03-28 17:48:00,54.9,22.5,29.81,North,-999,-999.0,-999.0,28,-99.99,,,-99.99,meteohub,2013-03-28 21:48:00,
2013-03-28 17:53:00,55.0,22.6,29.81,North,-999,-999.0,-999.0,28,-99.99,,,-99.99,meteohub,2013-03-28 21:53:00,
2013-03-28 17:58:00,55.0,22.6,29.81,North,-999,-999.0,-999.0,28,-99.99,,,-99.99,meteohub,2013-03-28 21:58:00,
2013-03-28 18:04:00,55.0,22.6,29.81,North,-999,-999.0,-999.0,28,-99.99,,,-99.99,meteohub,2013-03-28 22:04:00,
2013-03-28 18:09:00,55.2,22.8,29.81,North,-999,-999.0,-999.0,28,-99.99,,,-99.99,meteohub,2013-03-28 22:09:00,
2013-03-28 18:14:00,54.9,22.5,29.81,North,-999,-999.0,-999.0,28,-99.99,,,-99.99,meteohub,2013-03-28 22:14:00,
2013-03-28 18:19:00,54.7,22.3,29.81,North,-999,-999.0,-999.0,28,-99.99,,,-99.99,meteohub,2013-03-28 22:19:00,
2013-03-28 18:24:00,54.5,22.1,29.81,North,-999,-999.0,-999.0,28,-99.99,,,-99.99,meteohub,2013-03-28 22:24:00,
2013-03-28 18:29:00,54.7,22.3,29.81,North,-999,-999.0,-999.0,28,-99.99,,,-99.99,meteohub,2013-03-28 22:29:00,
2013-03-28 18:35:00,54.5,22.1,29.81,North,-999,-999.0,-999.0,28,-99.99,,,-99.99,meteohub,2013-03-28 22:35:00,
2013-03-28 18:40:00,54.3,21.9,29.81,North,-999,-999.0,-999.0,28,-99.99,,,-99.99,meteohub,2013-03-28 22:40:00,
2013-03-28 18:45:00,54.3,21.9,29.81,North,-999,-999.0,-999.0,28,-99.99,,,-99.99,meteohub,2013-03-28 22:45:00,
2013-03-28 18:50:00,54.1,21.7,29.84,North,-999,-999.0,-999.0,28,-99.99,,,-99.99,meteohub,2013-03-28 22:50:00,
2013-03-28 18:56:00,54.0,21.7,29.84,North,-999,-999.0,-999.0,28,-99.99,,,-99.99,meteohub,2013-03-28 22:56:00,
2013-03-28 19:01:00,53.6,21.4,29.84,North,-999,-999.0,-999.0,28,-99.99,,,-99.99,meteohub,2013-03-28 23:01:00,
2013-03-28 19:06:00,53.4,22.1,29.84,North,-999,-999.0,-999.0,29,-99.99,,,-99.99,meteohub,2013-03-28 23:06:00,
2013-03-28 19:12:00,53.2,21.9,29.84,North,-999,-999.0,-999.0,29,-99.99,,,-99.99,meteohub,2013-03-28 23:12:00,
2013-03-28 19:17:00,53.1,21.7,29.84,North,-999,-999.0,-999.0,29,-99.99,,,-99.99,meteohub,2013-03-28 23:17:00,
2013-03-28 19:22:00,52.7,21.4,29.84,North,-999,-999.0,-999.0,29,-99.99,,,-99.99,meteohub,2013-03-28 23:22:00,
2013-03-28 19:27:00,52.3,21.0,29.84,North,-999,-999.0,-999.0,29,-99.99,,,-99.99,meteohub,2013-03-28 23:27:00,
2013-03-28 19:32:00,52.2,20.8,29.84,North,-999,-999.0,-999.0,29,-99.99,,,-99.99,meteohub,2013-03-28 23:32:00,
2013-03-28 19:37:00,51.8,20.7,29.84,North,-999,-999.0,-999.0,29,-99.99,,,-99.99,meteohub,2013-03-28 23:37:00,
2013-03-28 19:42:00,51.6,21.2,29.84,North,-999,-999.0,-999.0,30,-99.99,,,-99.99,meteohub,2013-03-28 23:42:00,
2013-03-28 19:47:00,51.3,21.0,29.84,North,-999,-999.0,-999.0,30,-99.99,,,-99.99,meteohub,2013-03-28 23:47:00,
2013-03-28 19:53:00,50.9,20.7,29.87,North,-999,-999.0,-999.0,30,-99.99,,,-99.99,meteohub,2013-03-28 23:53:00,
2013-03-28 19:58:00,50.5,20.3,29.87,North,-999,-999.0,-999.0,30,-99.99,,,-99.99,meteohub,2013-03-28 23:58:00,
2013-03-28 20:03:00,50.4,20.8,29.87,North,-999,-999.0,-999.0,31,-99.99,,,-99.99,meteohub,2013-03-29 00:03:00,
2013-03-28 20:08:00,50.2,20.8,29.87,North,-999,-999.0,-999.0,31,-99.99,,,-99.99,meteohub,2013-03-29 00:08:00,
2013-03-28 20:14:00,49.8,21.2,29.87,North,-999,-999.0,-999.0,32,-99.99,,,-99.99,meteohub,2013-03-29 00:14:00,
2013-03-28 20:19:00,49.6,21.0,29.87,North,-999,-999.0,-999.0,32,-99.99,,,-99.99,meteohub,2013-03-29 00:19:00,
2013-03-28 20:24:00,49.3,20.7,29.87,North,-999,-999.0,-999.0,32,-99.99,,,-99.99,meteohub,2013-03-29 00:24:00,
2013-03-28 20:29:00,48.9,20.5,29.87,North,-999,-999.0,-999.0,32,-99.99,,,-99.99,meteohub,2013-03-29 00:29:00,
2013-03-28 20:34:00,48.6,20.8,29.87,North,-999,-999.0,-999.0,33,-99.99,,,-99.99,meteohub,2013-03-29 00:34:00,
2013-03-28 20:39:00,48.2,20.5,29.87,North,-999,-999.0,-999.0,33,-99.99,,,-99.99,meteohub,2013-03-29 00:39:00,
2013-03-28 20:45:00,47.8,20.8,29.87,North,-999,-999.0,-999.0,34,-99.99,,,-99.99,meteohub,2013-03-29 00:45:00,
2013-03-28 20:50:00,47.5,21.2,29.87,North,-999,-999.0,-999.0,35,-99.99,,,-99.99,meteohub,2013-03-29 00:50:00,
2013-03-28 20:55:00,47.3,21.7,29.87,North,-999,-999.0,-999.0,36,-99.99,,,-99.99,meteohub,2013-03-29 00:55:00,
2013-03-28 21:00:00,47.1,22.3,29.87,North,-999,-999.0,-999.0,37,-99.99,,,-99.99,meteohub,2013-03-29 01:00:00,
2013-03-28 21:05:00,46.9,22.1,29.87,North,-999,-999.0,-999.0,37,-99.99,,,-99.99,meteohub,2013-03-29 01:05:00,
2013-03-28 21:10:00,46.9,22.1,29.87,North,-999,-999.0,-999.0,37,-99.99,,,-99.99,meteohub,2013-03-29 01:10:00,
2013-03-28 21:16:00,46.9,22.1,29.87,North,-999,-999.0,-999.0,37,-99.99,,,-99.99,meteohub,2013-03-29 01:16:00,
2013-03-28 21:21:00,46.9,22.1,29.87,North,-999,-999.0,-999.0,37,-99.99,,,-99.99,meteohub,2013-03-29 01:21:00,
2013-03-28 21:26:00,46.8,21.9,29.87,North,-999,-999.0,-999.0,37,-99.99,,,-99.99,meteohub,2013-03-29 01:26:00,
2013-03-28 21:32:00,46.6,21.7,29.87,North,-999,-999.0,-999.0,37,-99.99,,,-99.99,meteohub,2013-03-29 01:32:00,
2013-03-28 21:37:00,46.4,21.6,29.90,North,-999,-999.0,-999.0,37,-99.99,,,-99.99,meteohub,2013-03-29 01:37:00,
2013-03-28 21:42:00,46.2,22.1,29.90,North,-999,-999.0,-999.0,38,-99.99,,,-99.99,meteohub,2013-03-29 01:42:00,
2013-03-28 21:47:00,46.0,21.9,29.90,North,-999,-999.0,-999.0,38,-99.99,,,-99.99,meteohub,2013-03-29 01:47:00,
2013-03-28 21:52:00,45.9,21.7,29.90,North,-999,-999.0,-999.0,38,-99.99,,,-99.99,meteohub,2013-03-29 01:52:00,
2013-03-28 21:57:00,45.5,21.4,29.90,North,-999,-999.0,-999.0,38,-99.99,,,-99.99,meteohub,2013-03-29 01:57:00,
2013-03-28 22:02:00,45.3,21.2,29.90,North,-999,-999.0,-999.0,38,-99.99,,,-99.99,meteohub,2013-03-29 02:02:00,
2013-03-28 22:07:00,45.1,21.0,29.90,North,-999,-999.0,-999.0,38,-99.99,,,-99.99,meteohub,2013-03-29 02:07:00,
2013-03-28 22:13:00,45.0,21.0,29.90,North,-999,-999.0,-999.0,38,-99.99,,,-99.99,meteohub,2013-03-29 02:13:00,
2013-03-28 22:18:00,45.0,21.0,29.90,North,-999,-999.0,-999.0,38,-99.99,,,-99.99,meteohub,2013-03-29 02:18:00,
2013-03-28 22:23:00,44.8,20.8,29.93,North,-999,-999.0,-999.0,38,-99.99,,,-99.99,meteohub,2013-03-29 02:23:00,
2013-03-28 22:28:00,44.6,21.2,29.93,North,-999,-999.0,-999.0,39,-99.99,,,-99.99,meteohub,2013-03-29 02:28:00,
2013-03-28 22:33:00,44.4,21.0,29.93,North,-999,-999.0,-999.0,39,-99.99,,,-99.99,meteohub,2013-03-29 02:33:00,
2013-03-28 22:38:00,44.2,20.8,29.93,North,-999,-999.0,-999.0,39,-99.99,,,-99.99,meteohub,2013-03-29 02:38:00,
2013-03-28 22:44:00,44.2,20.8,29.93,North,-999,-999.0,-999.0,39,-99.99,,,-99.99,meteohub,2013-03-29 02:44:00,
2013-03-28 22:49:00,44.2,20.8,29.93,North,-999,-999.0,-999.0,39,-99.99,,,-99.99,meteohub,2013-03-29 02:49:00,
2013-03-28 22:54:00,44.2,20.8,29.93,North,-999,-999.0,-999.0,39,-99.99,,,-99.99,meteohub,2013-03-29 02:54:00,
2013-03-28 22:59:00,44.1,20.7,29.93,North,-999,-999.0,-999.0,39,-99.99,,,-99.99,meteohub,2013-03-29 02:59:00,
2013-03-28 23:04:00,44.1,20.7,29.93,North,-999,-999.0,-999.0,39,-99.99,,,-99.99,meteohub,2013-03-29 03:04:00,
2013-03-28 23:10:00,43.7,20.5,29.93,North,-999,-999.0,-999.0,39,-99.99,,,-99.99,meteohub,2013-03-29 03:10:00,
2013-03-28 23:15:00,43.5,20.3,29.93,North,-999,-999.0,-999.0,39,-99.99,,,-99.99,meteohub,2013-03-29 03:15:00,
2013-03-28 23:20:00,43.3,20.1,29.93,North,-999,-999.0,-999.0,39,-99.99,,,-99.99,meteohub,2013-03-29 03:20:00,
2013-03-28 23:25:00,43.0,19.8,29.93,North,-999,-999.0,-999.0,39,-99.99,,,-99.99,meteohub,2013-03-29 03:25:00,
2013-03-28 23:30:00,42.8,20.1,29.93,North,-999,-999.0,-999.0,40,-99.99,,,-99.99,meteohub,2013-03-29 03:30:00,
2013-03-28 23:35:00,42.4,19.9,29.93,North,-999,-999.0,-999.0,40,-99.99,,,-99.99,meteohub,2013-03-29 03:35:00,
2013-03-28 23:41:00,42.1,19.6,29.93,North,-999,-999.0,-999.0,40,-99.99,,,-99.99,meteohub,2013-03-29 03:41:00,
2013-03-28 23:46:00,41.9,19.4,29.93,North,-999,-999.0,-999.0,40,-99.99,,,-99.99,meteohub,2013-03-29 03:46:00,
2013-03-28 23:52:00,41.5,19.6,29.96,North,-999,-999.0,-999.0,41,-99.99,,,-99.99,meteohub,2013-03-29 03:52:00,
2013-03-28 23:57:00,41.2,19.9,29.96,North,-999,-999.0,-999.0,42,-99.99,,,-99.99,meteohub,2013-03-29 03:57:00,